{"data":{"norad_id":65639,"epoch":"2026-09-19T23:45:46.785312Z","epoch_age_seconds":152774,"freshness":"FRESH","line1":"1 65639U 25210T   26262.99012483  .00015980  00000+0  48307-3 0  9990","line2":"2 65639  53.1601 120.0160 0001483  90.3561 269.7611 15.34400809 57544","mean_motion":15.34400809,"eccentricity":0.0001483,"inclination_deg":53.1601,"raan_deg":120.016,"arg_perigee_deg":90.3561,"mean_anomaly_deg":269.7611,"bstar":0.00048307,"rev_number":5754,"period_min":93.847708600889,"perigee_km":461.68633943864,"apogee_km":463.71533194071,"semimajor_km":6840.8378356897,"source":"CELESTRAK","updated_at":"2026-09-21T09:00:35.676311Z"}}